Location: Ba?uty
(51.8000°N, 19.4667°E)
Time: 08:48:06
(UTC+00:00)

Daily predictions for brighter satellites

Satellite Brightness Start Highest point End
(mag) Time Altitude Azimuth Time Altitude Azimuth Time Altitude Azimuth
Cosmos 44 3.7 15:44:44 10° SSW 15:49:01 42° ESE 15:53:34 10° NE
Cosmos 1340 3.4 15:46:54 10° N 15:50:20 31° ENE 15:53:43 10° SE
Meteor 2-21 4.5 15:44:27 10° N 15:50:39 81° ENE 15:56:45 10° SSE
Cosmos 1703 4.2 15:47:40 10° NNW 15:51:32 55° W 15:55:24 10° S
Okean O Rocket 1.6 15:48:05 10° SSE 15:52:26 77° ENE 15:56:48 10° NNW
Timation 2 Rocket 4.2 15:46:06 10° NNW 15:52:43 89° WSW 15:59:33 10° SSE
Cosmos 2228 3.2 15:48:53 10° S 15:53:00 50° E 15:57:10 10° NNE
CZ-2D R/B 4.5 15:50:34 10° ESE 15:53:29 21° ENE 15:56:24 10° NNE
Cosmos 1726 Rocket 4.0 15:49:35 10° SSE 15:53:38 39° E 15:57:45 10° NNE
Cosmos 2297 Rocket 2.2 15:48:43 10° NNW 15:54:23 65° NE 16:00:01 10° SE
Cosmos 2369 Rocket 3.7 15:49:20 10° WSW 15:54:27 33° NW 15:59:38 10° NNE
Aureole 3 4.1 15:53:12 10° SE 15:55:20 18° E 15:57:28 10° NE
Cosmos 1758 Rocket 3.8 15:51:06 10° NNW 15:55:32 77° W 15:59:51 10° S
CZ-4 R/B 2.7 15:52:58 10° ESE 15:55:38 18° ENE 15:58:19 10° NNE
CORIOLIS 4.1 15:50:22 10° SSE 15:55:42 75° ENE 16:01:06 10° NNW
In-Cosmos 22 Rocket 4.5 15:51:24 10° N 15:56:30 42° ENE 16:01:39 10° SE
SL-4 R/B 1.7 15:53:22 10° W 15:56:52 89° SSW 16:00:35 10° E
Cosmos 1346 Rocket 4.0 15:54:04 10° NNE 15:57:14 22° ENE 16:00:23 10° ESE
Cosmos 2058 4.1 15:54:13 10° NNE 15:57:21 21° ENE 16:00:29 10° ESE
Cosmos 1452 Rocket 4.1 15:54:22 10° SW 15:59:34 60° WNW 16:04:50 10° NNE
Cosmos 1356 Rocket 4.4 15:57:45 10° SSW 16:01:56 52° WNW 16:06:11 10° N
CZ-2C R/B 4.1 15:59:45 10° ESE 16:04:34 29° ENE 16:09:14 10° N
Cosmos 1953 4.1 16:01:59 10° SW 16:05:38 35° WNW 16:09:20 10° N
Cosmos 1606 Rocket 3.5 16:05:39 10° S 16:09:59 70° E 16:14:26 10° NNE
NOSS 3-4 (A) 4.2 16:04:53 10° NW 16:11:11 43° NNE 16:18:10 10° E
NOSS 3-4 (C) 4.2 16:05:00 10° NW 16:11:17 43° NNE 16:18:14 10° E
Cosmos 1315 Rocket 4.4 16:09:14 10° ESE 16:11:31 15° E 16:13:49 10° NE
Meteor 2-10 Rocket 4.4 16:11:36 10° SE 16:15:49 25° E 16:19:56 10° NE
YAOGAN 6 3.9 16:12:49 10° S 16:16:21 46° W 16:19:57 10° NNW
FengYun 1-2 T 4.3 16:11:48 10° SSE 16:17:28 85° ENE 16:23:08 10° NNW
USA 305 3.0 16:13:10 10° WNW 16:17:30 82° SSW 16:21:48 10° ESE
SKYMED 2 4.3 16:14:07 10° NNE 16:18:02 31° E 16:21:53 10° SSE
Meteor 2-16 Rocket 4.4 16:12:49 10° N 16:18:57 85° E 16:25:04 10° S
Cosmos 292 Rocket 3.7 16:15:45 10° SSW 16:20:31 75° ESE 16:25:23 10° NNE
Cosmos 1943 Rocket 4.3 16:17:11 10° WNW 16:21:05 19° NNW 16:25:00 10° NNE
USA 306 3.0 16:19:41 10° WNW 16:24:00 77° SSW 16:28:15 10° ESE
Cosmos 1455 3.5 16:21:24 10° SE 16:24:06 19° E 16:26:50 10° NE
SeaSat 1 3.6 16:20:50 13° E 16:24:09 24° NE 16:28:06 10° NNW
H-2A R/B 3.0 16:20:47 10° ESE 16:25:26 30° ENE 16:30:06 10° N
Aureole 3 Rocket 3.6 16:21:32 10° SSE 16:25:46 53° E 16:31:43 10° NNE
BREEZE-M R/B 4.1 16:16:27 10° W 16:26:38 67° S 16:28:59 16° ESE
Cosmos 2219 3.5 16:22:07 10° NNW 16:27:53 75° WSW 16:33:37 10° SSE
USA 215 3.6 16:22:49 13° ENE 16:28:40 57° N 16:35:03 10° WNW
Cosmos 1745 Rocket 4.2 16:23:13 10° N 16:29:19 49° ENE 16:35:26 10° SSE
Okean-O 3.0 16:25:23 10° SE 16:29:34 43° ENE 16:33:47 10° N
SMAP 4.2 16:25:54 10° S 16:30:25 49° W 16:34:58 10° NNW
ATLAS 5 CENTAUR R/B 3.4 16:27:49 10° WNW 16:31:35 25° NNW 16:35:50 10° NE
Cosmos 1331 Rocket 4.2 16:26:52 10° SSW 16:32:02 75° WNW 16:37:13 10° NNE
ATLAS 2AS CENTAUR R/B 3.3 16:25:50 10° NW 16:33:15 46° NNE 16:38:50 16° E
FALCON 9 DEB 3.2 16:30:33 10° SW 16:33:43 56° SSE 16:35:33 22° E
Cosmos 2082 3.7 16:29:27 10° NNW 16:35:11 64° NE 16:40:52 10° SE
FALCON 9 DEB 3.1 16:32:33 10° WSW 16:35:43 59° SSE 16:37:27 23° E
Lacrosse 5 2.4 16:32:36 10° WNW 16:37:30 46° N 16:41:00 18° ENE
Cosmos 1953 Rocket 4.4 16:33:49 10° NNW 16:38:09 56° W 16:42:30 10° S
Cosmos 2278 Rocket 4.5 16:37:50 10° NNW 16:39:04 11° N 16:40:20 10° N
ARGOS 4.0 16:35:49 10° ESE 16:40:25 30° ENE 16:45:04 10° N
GEOS 3 Rocket 4.0 16:36:13 15° ESE 16:40:32 49° NE 16:45:44 10° NW
Cosmos 1656 3.7 16:37:06 10° S 16:42:33 57° ESE 16:48:06 10° NE
Cosmos 968 Rocket 3.5 16:37:17 10° NNW 16:42:33 88° WSW 16:47:44 10° SSE
Cosmos 1408 2.8 16:39:35 10° N 16:43:09 47° ENE 16:46:42 10° SSE
Cosmos 2058 Rocket 3.0 16:43:21 10° S 16:47:50 85° ESE 16:52:24 10° NNE
Cosmos 1844 Rocket 4.5 16:44:47 10° NNW 16:48:00 15° NNE 16:50:01 13° NE
ADEOS Rocket 4.1 16:43:17 10° N 16:49:24 51° WNW 16:56:09 10° SW
ERBS 3.3 16:46:29 10° WNW 16:49:35 34° N 16:50:49 25° NE
FALCON 9 DEB 3.0 16:47:08 10° WSW 16:50:22 69° SSE 16:51:36 34° E
Cosmos 1689 Rocket 2.0 16:49:48 14° NNE 16:52:06 55° ESE 16:54:56 10° S
Cosmos 2369 4.3 16:48:22 10° S 16:53:29 35° ESE 16:57:12 17° NE
Cosmos 1076 Rocket 3.6 16:50:51 10° N 16:55:01 51° ENE 16:59:10 10° SSE
IRS-1C Rocket 4.3 16:51:41 10° S 16:56:57 76° WSW 17:02:17 10° NNW
SJ 16-02 3.4 16:55:12 10° NNE 16:56:44 13° NE 16:56:44 13° NE
FALCON 9 DEB 3.1 16:55:00 10° WNW 16:58:26 80° SSW 16:59:43 35° ESE
Cosmos 1709 Rocket 4.2 16:52:40 10° N 16:58:50 48° ENE 17:04:58 10° SE
SL-08 ROCKET BODY 4.4 16:52:41 10° N 16:58:50 84° E 17:05:02 10° S
Cosmos 2227 Rocket 2.8 16:53:20 10° NW 16:58:53 58° WSW 17:04:25 10° S
Cosmos 1892 2.8 16:55:15 10° NNW 16:59:09 77° W 17:03:02 10° S
FALCON 9 DEB 2.8 16:56:43 10° WSW 16:59:56 78° SSE 17:00:47 45° E
CZ-4C R/B 3.4 16:54:12 10° NW 17:00:22 40° NNE 17:04:27 23° ENE
Cosmos 2263 Rocket 2.8 16:55:51 10° NNW 17:01:07 37° NE 17:03:25 27° E
CSL-04 Rocket 3.8 16:56:10 10° SE 17:01:32 53° ENE 17:06:51 10° N
Cosmos 1939 Rocket 3.3 16:58:17 10° S 17:02:11 61° W 17:06:04 10° NNW
H-2A R/B 4.2 17:00:40 10° N 17:04:06 25° WNW 17:07:28 10° WSW
Cosmos 1302 Rocket 4.2 16:59:23 10° SSW 17:04:39 75° WNW 17:09:59 10° NNE
COSMO-SKYMED 1 2.5 17:01:53 10° NNE 17:06:16 87° ESE 17:10:37 10° SSW
USA 307 3.7 17:03:29 10° WNW 17:07:38 49° SSW 17:10:16 20° SE
SAR-Lupe-4 3.9 17:04:23 10° N 17:07:57 67° WNW 17:11:31 10° SSW
CZ-4B R/B 3.1 17:08:59 10° N 17:11:55 32° WNW 17:14:46 10° SW
USA 308 3.7 17:08:28 10° WNW 17:12:35 46° SSW 17:15:03 21° SSE
Cosmos 1400 Rocket 3.7 17:09:49 10° SSW 17:13:50 52° WNW 17:17:50 10° N
Cosmos 1825 2.0 17:11:04 10° N 17:14:52 71° ENE 17:17:29 19° SSE
ERS-2 3.9 17:12:19 10° N 17:15:37 33° WNW 17:18:55 10° SW
Cosmos 1697 Rocket 2.7 17:10:12 10° S 17:15:40 57° ESE 17:19:39 19° NE
Helios 1A Rocket 3.5 17:15:25 10° S 17:19:28 59° WSW 17:23:32 10° NNW
YAOGAN 1 2.6 17:17:28 10° SSE 17:21:49 81° WSW 17:26:10 10° NNW
Cosmos 1503 Rocket 4.2 17:17:11 10° NNW 17:22:24 71° WSW 17:27:38 10° SSE
S3M 3.8 17:17:03 10° S 17:23:10 82° E 17:29:24 10° NNE
BREEZE-M TANK 3.8 17:17:16 10° W 17:23:28 35° SSW 17:25:00 25° SSE
Cosmos 2315 Rocket 4.1 17:21:05 10° SSE 17:26:58 48° E 17:32:54 10° NNE
CZ-2D R/B 4.4 17:23:58 10° S 17:27:36 43° W 17:31:16 10° NNW
Cosmos 1812 Rocket 3.4 17:24:14 10° S 17:28:35 68° E 17:32:57 10° NNE
Meteor 2-1 Rocket 4.0 17:23:39 10° S 17:29:10 83° E 17:34:45 10° NNE
Cosmos 44 4.3 17:25:52 10° WSW 17:30:17 42° NW 17:33:26 19° NNE
CZ-4 R/B 2.0 17:26:33 10° S 17:30:21 54° W 17:34:09 10° NNW
Cosmos 1346 Rocket 4.0 17:30:01 10° NNW 17:33:48 42° W 17:37:34 10° SSW
Cosmos 2058 3.9 17:30:35 10° NNW 17:34:32 46° W 17:38:27 10° SSW
Cosmos 1354 Rocket 4.4 17:29:58 10° NNW 17:35:12 64° WSW 17:40:24 10° S
SL-4 R/B 2.2 17:32:50 10° W 17:36:21 50° SSW 17:36:32 50° S
Cosmos 2151 2.8 17:33:26 10° N 17:37:31 68° ENE 17:37:31 68° ENE
Cosmos 2297 Rocket 4.3 17:33:22 10° NW 17:38:00 26° WSW 17:42:37 10° SSW
Cosmos 1980 Rocket 2.3 17:33:57 10° S 17:39:19 48° ESE 17:39:22 48° ESE
SJ-11-01 4.3 17:35:51 12° SSE 17:40:11 81° WSW 17:44:55 10° NNW
Cosmos 1992 Rocket 3.9 17:35:56 10° SSW 17:41:09 85° WNW 17:45:22 16° NNE
Meteor 2-15 Rocket 4.5 17:37:37 10° SSW 17:43:48 82° WNW 17:49:59 10° N
CZ-2C R/B 3.7 17:38:24 10° S 17:44:07 61° W 17:49:38 10° NNW
CSL-04 Debris 4.3 17:39:05 10° S 17:44:31 75° WSW 17:50:02 10° NNW
TRAILBLAZER 4.4 17:41:21 10° NW 17:45:58 81° NE 17:46:14 76° E
Cosmos 1315 Rocket 3.2 17:43:37 10° SSW 17:47:34 62° WNW 17:51:35 10° N
CRYOSAT 2 4.4 17:43:57 10° N 17:48:50 76° W 17:53:41 10° SSW
Geosat 4.1 17:52:54 57° SSE 17:52:54 57° SSE 17:57:17 10° SSW
Ariane Rocket 3.3 17:53:41 49° NE 17:53:41 49° NE 17:57:57 10° N
Cosmos 2227 4.0 17:50:10 10° NNW 17:55:50 77° ENE 17:56:38 64° ESE
BREEZE-M R/B 4.3 17:52:30 10° W 17:56:49 55° SSW 17:59:00 40° SE
Meteor 2-10 Rocket 4.2 17:52:27 10° SSW 17:57:34 53° WNW 18:02:33 10° N
Cosmos 1455 3.3 17:55:48 10° SSW 17:59:25 42° WNW 18:03:06 10° N
SeaSat 1 2.4 18:00:38 70° SSE 18:01:12 85° WSW 18:06:11 10° NNW
Cosmos 2360 4.1 17:56:50 10° SSW 18:02:35 89° WNW 18:04:36 43° NNE
NOSS 3-4 (A) 3.8 17:55:49 10° NW 18:02:42 80° SW 18:05:39 41° SSE
NOSS 3-4 (C) 3.8 17:55:56 10° NW 18:02:48 80° SW 18:05:43 41° SSE
H-2A R/B 2.7 17:59:14 10° S 18:04:34 56° W 18:09:58 10° NNW
DEBRIS 4.1 17:50:14 10° WSW 18:06:05 62° S 18:06:54 57° SE
MOS 1 Rocket 3.5 18:02:13 10° N 18:06:53 72° WNW 18:11:50 10° SSW
IRS-1A Rocket 4.1 18:10:51 73° NE 18:10:51 73° NE 18:16:09 10° NNW
USA 215 3.2 18:10:10 60° E 18:11:23 75° NNE 18:17:56 10° WNW
Cosmos 2278 3.5 18:07:08 10° SSW 18:12:45 83° SE 18:12:45 83° SE
NOSS 3-3 (A) 4.0 18:08:12 10° SW 18:14:11 80° NW 18:16:10 48° NE
MOS 1 4.2 18:14:38 69° NE 18:14:38 69° NE 18:19:53 10° NNW
NOSS 3-3 (C) 4.0 18:08:18 10° SW 18:14:17 81° NW 18:16:14 49° NE
ATLAS 5 CENTAUR R/B 3.5 18:13:39 10° NW 18:17:34 25° N 18:17:34 25° N
GEOS 3 Rocket 4.3 18:17:20 43° SSW 18:18:33 51° SW 18:23:50 10° NW
Meteor 2-3 Rocket 3.7 18:13:22 10° NNW 18:19:08 85° WSW 18:19:36 76° SSW
COSMOS 2455 4.0 18:14:58 10° NNW 18:19:43 29° NNE 18:19:43 29° NNE
ARGOS 3.7 18:17:21 25° SSW 18:20:25 55° W 18:25:47 10° NNW
Lacrosse 5 2.2 18:15:55 10° WNW 18:20:11 60° NW 18:20:11 60° NW
Cosmos 44 Rocket 4.1 18:16:40 10° SW 18:19:57 44° SW 18:19:57 44° SW
ATLAS 2AS CENTAUR R/B 2.8 18:17:14 10° NW 18:24:48 75° SW 18:26:17 58° SSE
Cosmos 2278 Rocket 4.2 18:22:20 10° NNW 18:24:58 16° NNE 18:24:58 16° NNE
Cosmos 1844 Rocket 3.9 18:28:09 10° NNW 18:31:40 32° N 18:31:40 32° N
SJ 16-02 3.5 18:32:19 10° NNW 18:33:43 20° NNW 18:33:43 20° NNW
Cosmos 2369 4.4 18:31:56 10° SW 18:37:31 51° NW 18:39:12 39° N
Cosmos 2184 Rocket 4.1 18:34:45 10° N 18:40:25 73° NNW 18:40:25 73° NNW
Cosmos 2263 Rocket 2.8 18:39:45 10° NW 18:45:08 53° WSW 18:45:08 53° WSW
CZ-4C R/B 2.8 18:42:44 10° NW 18:49:38 88° NW 18:49:38 88° NW
Cosmos 2074 Rocket 4.4 18:52:45 10° NNW 18:58:06 59° NW 18:58:06 59° NW
Cosmos 1697 Rocket 4.1 18:54:50 10° WSW 18:59:57 34° NW 19:01:26 30° NNW
Cosmos 1980 Rocket 3.9 19:18:13 10° WSW 19:21:13 28° W 19:21:13 28° W
